This is the latest recevied weather packets stored in our database for station/object JA0ZJX-13. If no packets are shown the sender has not sent any weather packets the latest 10 day(s).
| Time | Temp. | Humidity | Pressure | Rain* | Wind** | Luminosity | Snow |
|---|---|---|---|---|---|---|---|
| 1777600424 | 10° C | 86% | 1002.4 hPa | 0.25 mm | - | 139 W/m² | - |
| 1777599814 | 10° C | 86% | 1002.7 hPa | 0 mm | - | 79 W/m² | - |
| 1777599224 | 10° C | 85% | 1003.1 hPa | 0.25 mm | - | 185 W/m² | - |
| 1777598614 | 9.44° C | 86% | 1003.4 hPa | 0.51 mm | - | 172 W/m² | - |
| 1777598007 | 9.44° C | 86% | 1003.7 hPa | 0.51 mm | - | 146 W/m² | - |
| 1777597417 | 9.44° C | 85% | 1004.1 hPa | 0.51 mm | - | 149 W/m² | - |
| 1777596806 | 9.44° C | 86% | 1004.6 hPa | 1.27 mm | - | 132 W/m² | - |
| 1777596219 | 9.44° C | 86% | 1005.1 hPa | 1.78 mm | - | 83 W/m² | - |
| 1777595609 | 9.44° C | 86% | 1005.5 hPa | 2.29 mm | - | 62 W/m² | - |
| 1777595018 | 8.89° C | 86% | 1005.3 hPa | 3.3 mm | - | 49 W/m² | - |
| 1777594408 | 8.89° C | 86% | 1006.4 hPa | 4.06 mm | - | 60 W/m² | - |
| 1777593822 | 8.89° C | 86% | 1006.5 hPa | 4.57 mm | - | 32 W/m² | - |
| 1777593210 | 8.89° C | 86% | 1006.9 hPa | 5.08 mm | - | 32 W/m² | - |
| 1777592620 | 8.89° C | 86% | 1007 hPa | 5.33 mm | - | 47 W/m² | - |
| 1777592008 | 8.89° C | 86% | 1007 hPa | 5.08 mm | - | 28 W/m² | - |
| 1777591421 | 8.89° C | 86% | 1007.4 hPa | 4.83 mm | - | 18 W/m² | - |
| 1777590811 | 8.89° C | 86% | 1007.7 hPa | 4.32 mm | - | 28 W/m² | - |
| 1777590220 | 8.89° C | 86% | 1008 hPa | 3.81 mm | - | 16 W/m² | - |
| 1777589615 | 8.89° C | 86% | 1008 hPa | 3.3 mm | - | 14 W/m² | - |
| 1777589024 | 8.89° C | 87% | 1008.2 hPa | 2.54 mm | - | 9 W/m² | - |
| 1777588411 | 8.89° C | 87% | 1008.3 hPa | 2.29 mm | - | 14 W/m² | - |
| 1777587822 | 8.89° C | 87% | 1008.1 hPa | 2.79 mm | - | 16 W/m² | - |
| 1777587216 | 8.89° C | 87% | 1008.9 hPa | 3.3 mm | - | 12 W/m² | - |
| 1777586606 | 8.89° C | 87% | 1008.5 hPa | 3.3 mm | - | 18 W/m² | - |
| 1777586015 | 8.89° C | 87% | 1008.4 hPa | 2.54 mm | - | 25 W/m² | - |
* Rain latest hour (hover to see other rain measurements)
** Current wind speed in m/s (hover to see current wind gust speed)